Overview Statistics Trail Chart Weather Telemetry Raw packets
 

This is the latest recevied weather packets stored in our database for station/object EB1BWO-11. If no packets are shown the sender has not sent any weather packets the latest 10 day(s).

<< 1 2 3 4 5 6 7 >>
Time Temp. Humidity Pressure Rain* Wind** Luminosity Snow
1788555471 22.78° C 64% 1025.8 hPa - - - -
1788554570 23.33° C 62% 1025.8 hPa - - - -
1788553669 22.78° C 62% 1025.9 hPa - - - -
1788552768 22.78° C 62% 1025.8 hPa - - - -
1788551868 23.33° C 63% 1025.8 hPa - - - -
1788550968 23.33° C 62% 1025.8 hPa - - - -
1788550067 23.33° C 61% 1025.7 hPa - - - -
1788549167 23.33° C 61% 1025.6 hPa - - - -
1788548266 23.89° C 61% 1025.5 hPa - - - -
1788547366 23.89° C 61% 1025.5 hPa - - - -
1788546466 23.89° C 61% 1025.4 hPa - - - -
1788545565 23.89° C 61% 1025.4 hPa - - - -
1788544665 24.44° C 61% 1025.4 hPa - - - -
1788543765 24.44° C 60% 1025.5 hPa - - - -
1788542865 24.44° C 61% 1025.1 hPa - - - -
1788541965 25° C 61% 1024.9 hPa - - - -
1788541065 25.56° C 59% 1024.7 hPa - - - -
1788540165 26.11° C 58% 1024.5 hPa - - - -
1788539264 27.22° C 58% 1024.3 hPa - - - -
1788538364 26.67° C 58% 1024.2 hPa - - - -
1788537464 27.22° C 58% 1024 hPa - - - -
1788536564 27.78° C 57% 1023.8 hPa - - - -
1788535664 29.44° C 54% 1023.4 hPa - - - -
1788534764 30.56° C 53% 1023.2 hPa - - - -
1788533864 32.22° C 52% 1023 hPa - - - -

* Rain since midnight (hover to see other rain measurements)
** Current wind speed in m/s (hover to see current wind gust speed)